Location: Gleizolles
(44.4833°N, 6.7667°E)
Time: 16:33:48
(UTC+00:00)

Altair - Pass Details

Date: 29 June 2024
Orbit: 1502 x 1681 km, 47.2° (Epoch: 13 July)

Event Time Altitude Azimuth Distance (km) Brightness Sun altitude
Rises 21:58:31 0° 208° (SSW) 4,632 - -18.7°
Reaches altitude 10° 22:01:48 10° 200° (SSW) 3,646 - -19.0°
Exits shadow 22:04:35 21° 189° (S) 2,898 8.5 -19.2°
Maximum altitude 22:09:58 38° 137° (SE) 2,148 7.8 -19.5°
Drops below altitude 10° 22:18:12 10° 73° (ENE) 3,690 9.5 -20.0°
Sets 22:21:31 0° 66° (ENE) 4,693 10.1 -20.2°
